KLM1503 EHAM-LEMD

Flight info

Callsign KLM1503
Flight time 2h 5m
Altitude 23000
Route WOODY N872 CIV/N0433F370 N872 MEDIL DCT KOVIN DCT DUCRA DCT RESMI DCT DEKOD DCT DISAK DCT ARKIP DCT ARNAV DCT LMG DCT UVELI DCT OSMOB DCT ARVID DCT PPN DCT NOLSA DCT ALEPO DCT VASUM N10 BANEV
Aircraft A21N/M-SDE2E3FGHIRWXY/LB1

Departure

Time 2026-04-30 07:42
Airport Amsterdam Airport Schiphol (EHAM)

Arrival

Time 2026-04-30 09:47
Airport Adolfo Suárez Madrid–Barajas Airport (LEMD)
Time Latitude Longitude Altitude Speed Heading
2026-04-30 07:27 52.30709 4.77155 2 ft 0 kts
2026-04-30 07:28 52.30696 4.77155 2 ft 3 kts 19°
2026-04-30 07:28 52.30677 4.77144 2 ft 4 kts 358°
2026-04-30 07:28 52.30662 4.77158 2 ft 4 kts 304°
2026-04-30 07:29 52.30655 4.77178 2 ft 1 kts 302°
2026-04-30 07:32 52.30657 4.77173 2 ft 2 kts 299°
2026-04-30 07:32 52.30649 4.77090 2 ft 12 kts 241°
2026-04-30 07:32 52.30567 4.77074 2 ft 16 kts 149°
2026-04-30 07:32 52.30478 4.77191 2 ft 18 kts 101°
2026-04-30 07:33 52.30526 4.77345 2 ft 16 kts 49°
2026-04-30 07:33 52.30594 4.77510 2 ft 19 kts 62°
2026-04-30 07:33 52.30711 4.77593 2 ft 21 kts
2026-04-30 07:33 52.30873 4.77611 2 ft 26 kts
2026-04-30 07:34 52.31067 4.77628 2 ft 30 kts
2026-04-30 07:34 52.31288 4.77645 2 ft 34 kts
2026-04-30 07:34 52.31510 4.77556 2 ft 36 kts 316°
2026-04-30 07:34 52.31571 4.77171 2 ft 39 kts 268°
2026-04-30 07:35 52.31556 4.76708 2 ft 43 kts 268°
2026-04-30 07:35 52.31539 4.76223 2 ft 43 kts 266°
2026-04-30 07:35 52.31520 4.75716 2 ft 47 kts 267°
2026-04-30 07:35 52.31454 4.75428 2 ft 22 kts 215°
2026-04-30 07:36 52.31416 4.75182 2 ft 26 kts 267°
2026-04-30 07:36 52.31406 4.74859 2 ft 31 kts 266°
2026-04-30 07:36 52.31474 4.74595 2 ft 27 kts 284°
2026-04-30 07:36 52.31486 4.74338 3 ft 19 kts 308°
2026-04-30 07:37 52.31550 4.74300 2 ft 3 kts 359°
2026-04-30 07:37 52.31597 4.74301 2 ft 12 kts
2026-04-30 07:37 52.31739 4.74315 2 ft 24 kts
2026-04-30 07:37 52.31878 4.74331 2 ft 16 kts
2026-04-30 07:38 52.32005 4.74320 2 ft 20 kts 323°
2026-04-30 07:38 52.31941 4.74192 2 ft 21 kts 190°
2026-04-30 07:38 52.31782 4.74176 2 ft 25 kts 185°
2026-04-30 07:38 52.31596 4.74160 2 ft 28 kts 185°
2026-04-30 07:39 52.31400 4.74165 4 ft 20 kts 139°
2026-04-30 07:39 52.31390 4.74378 2 ft 20 kts 88°
2026-04-30 07:39 52.31404 4.74625 3 ft 23 kts 60°
2026-04-30 07:39 52.31550 4.74663 2 ft 11 kts 357°
2026-04-30 07:40 52.31554 4.74663 2 ft 0 kts 357°
2026-04-30 07:41 52.31573 4.74662 2 ft 6 kts 357°
2026-04-30 07:41 52.31637 4.74677 3 ft 11 kts 31°
2026-04-30 07:41 52.31669 4.74805 2 ft 14 kts 86°
2026-04-30 07:41 52.31670 4.74840 1 ft 0 kts 86°
2026-04-30 07:42 52.31676 4.75015 0 ft 50 kts 86°
2026-04-30 07:42 52.31709 4.76036 2 ft 131 kts 87°
2026-04-30 07:42 52.31800 4.77852 223 ft 175 kts 86°
2026-04-30 07:42 52.31850 4.79852 1166 ft 172 kts 99°
2026-04-30 07:43 52.31305 4.81493 2285 ft 169 kts 132°
2026-04-30 07:43 52.30235 4.82589 2907 ft 196 kts 152°
2026-04-30 07:43 52.28901 4.83310 3769 ft 207 kts 156°
2026-04-30 07:43 52.27501 4.83983 4724 ft 213 kts 158°
2026-04-30 07:44 52.26060 4.84640 5677 ft 219 kts 164°
2026-04-30 07:44 52.24491 4.84862 6417 ft 238 kts 173°
2026-04-30 07:44 52.22756 4.84850 6990 ft 258 kts 176°
2026-04-30 07:44 52.20930 4.84778 7803 ft 266 kts 176°
2026-04-30 07:45 52.19063 4.84707 8696 ft 271 kts 176°
2026-04-30 07:45 52.17158 4.84645 9631 ft 276 kts 175°
2026-04-30 07:45 52.15221 4.84593 10488 ft 281 kts 175°
2026-04-30 07:45 52.13209 4.84550 10985 ft 300 kts 175°
2026-04-30 07:46 52.11038 4.84512 11297 ft 324 kts 176°
2026-04-30 07:46 52.08728 4.84466 11821 ft 338 kts 176°
2026-04-30 07:46 52.06344 4.84411 12567 ft 345 kts 176°
2026-04-30 07:46 52.03920 4.84336 13360 ft 352 kts 179°
2026-04-30 07:47 52.01472 4.83673 14118 ft 364 kts 194°
2026-04-30 07:47 51.99101 4.82093 14831 ft 372 kts 201°
2026-04-30 07:47 51.96760 4.80255 15582 ft 376 kts 203°
2026-04-30 07:47 51.94405 4.78370 16338 ft 379 kts 203°
2026-04-30 07:48 51.92028 4.76478 17098 ft 382 kts 203°
2026-04-30 07:48 51.89654 4.74602 17815 ft 386 kts 203°
2026-04-30 07:48 51.87227 4.72696 18527 ft 390 kts 203°
2026-04-30 07:48 51.84768 4.70770 19138 ft 394 kts 202°
2026-04-30 07:49 51.82285 4.68832 19706 ft 398 kts 202°
2026-04-30 07:49 51.79780 4.66881 20324 ft 401 kts 203°
2026-04-30 07:49 51.77253 4.64915 20887 ft 405 kts 203°
2026-04-30 07:49 51.74693 4.62925 21441 ft 410 kts 203°
2026-04-30 07:50 51.72119 4.60928 22012 ft 413 kts 203°
2026-04-30 07:50 51.69522 4.58915 22637 ft 415 kts 203°
2026-04-30 07:50 51.66897 4.56883 23143 ft 420 kts 203°
2026-04-30 07:50 51.64248 4.54835 23663 ft 424 kts 204°
2026-04-30 07:51 51.61583 4.52777 24145 ft 427 kts 204°
2026-04-30 07:51 51.58889 4.50699 24591 ft 430 kts 204°
2026-04-30 07:51 51.56214 4.48640 24988 ft 433 kts 204°
2026-04-30 07:51 51.53489 4.46544 25438 ft 435 kts 203°
2026-04-30 07:52 51.50752 4.44443 25888 ft 437 kts 203°
2026-04-30 07:52 51.47999 4.42332 26288 ft 440 kts 203°
2026-04-30 07:52 51.45234 4.40215 26716 ft 441 kts 203°
2026-04-30 07:52 51.42449 4.38086 27106 ft 444 kts 203°
2026-04-30 07:53 51.39653 4.35951 27477 ft 446 kts 202°
2026-04-30 07:53 51.36839 4.33808 27818 ft 449 kts 202°
2026-04-30 07:53 51.34004 4.31652 28185 ft 451 kts 202°
2026-04-30 07:53 51.32120 4.30221 28427 ft 453 kts 202°
2026-04-30 07:54 51.29266 4.28055 28760 ft 455 kts 202°
2026-04-30 07:54 51.25461 4.25167 29211 ft 458 kts 202°
2026-04-30 07:54 51.22577 4.22980 29541 ft 460 kts 202°
2026-04-30 07:54 51.20619 4.21498 29767 ft 461 kts 202°
2026-04-30 07:55 51.17752 4.19349 30195 ft 459 kts 200°
2026-04-30 07:55 51.14787 4.17501 30612 ft 456 kts 197°
2026-04-30 07:55 51.11808 4.15776 30988 ft 455 kts 196°
2026-04-30 07:55 51.08833 4.14115 31356 ft 453 kts 195°
2026-04-30 07:56 51.05854 4.12484 31714 ft 452 kts 195°
2026-04-30 07:56 51.02881 4.10870 32065 ft 451 kts 195°
2026-04-30 07:56 50.99915 4.09263 32402 ft 450 kts 195°
2026-04-30 07:56 50.96949 4.07656 32731 ft 449 kts 195°
2026-04-30 07:57 50.93996 4.06054 33045 ft 448 kts 195°
2026-04-30 07:57 50.91049 4.04454 33349 ft 447 kts 195°
2026-04-30 07:57 50.88111 4.02846 33649 ft 447 kts 196°
2026-04-30 07:57 50.85201 4.01119 33942 ft 447 kts 198°
2026-04-30 07:58 50.82317 3.99295 34218 ft 446 kts 199°
2026-04-30 07:58 50.79446 3.97431 34461 ft 446 kts 199°
2026-04-30 07:58 50.76579 3.95557 34673 ft 446 kts 199°
2026-04-30 07:58 50.73712 3.93690 34869 ft 446 kts 199°
2026-04-30 07:59 50.70845 3.91836 35060 ft 445 kts 199°
2026-04-30 07:59 50.68015 3.90019 35243 ft 445 kts 199°
2026-04-30 07:59 50.65116 3.88168 35450 ft 444 kts 199°
2026-04-30 08:00 50.59413 3.84546 35787 ft 444 kts 199°
2026-04-30 08:00 50.56552 3.82710 35977 ft 444 kts 199°
2026-04-30 08:00 50.53703 3.80810 36147 ft 444 kts 200°
2026-04-30 08:00 50.50871 3.78878 36283 ft 444 kts 200°
2026-04-30 08:01 50.48048 3.76937 36449 ft 444 kts 200°
2026-04-30 08:01 50.45214 3.74987 36591 ft 444 kts 200°
2026-04-30 08:01 50.42386 3.73047 36724 ft 443 kts 200°
2026-04-30 08:01 50.39552 3.71111 36867 ft 443 kts 200°
2026-04-30 08:02 50.33898 3.67270 37195 ft 441 kts 201°
2026-04-30 08:02 50.31071 3.65357 37277 ft 442 kts 201°
2026-04-30 08:03 50.19741 3.57721 37271 ft 445 kts 201°
2026-04-30 08:04 50.14055 3.53902 37269 ft 445 kts 201°
2026-04-30 08:04 50.08363 3.50088 37260 ft 446 kts 200°
2026-04-30 08:05 50.02666 3.46281 37255 ft 446 kts 201°
2026-04-30 08:05 49.96961 3.42480 37252 ft 446 kts 201°
2026-04-30 08:06 49.91252 3.38685 37252 ft 447 kts 201°
2026-04-30 08:06 49.85526 3.34891 37249 ft 447 kts 201°
2026-04-30 08:07 49.79795 3.31102 37248 ft 448 kts 201°
2026-04-30 08:07 49.74060 3.27318 37237 ft 448 kts 201°
2026-04-30 08:08 49.68319 3.23538 37232 ft 449 kts 201°
2026-04-30 08:08 49.62585 3.19775 37227 ft 452 kts 201°
2026-04-30 08:09 49.56793 3.15986 37225 ft 452 kts 200°
2026-04-30 08:09 49.50993 3.12198 37223 ft 453 kts 201°
2026-04-30 08:10 49.45479 3.07463 37221 ft 456 kts 210°
2026-04-30 08:10 49.40150 3.02151 37212 ft 457 kts 211°
2026-04-30 08:11 49.34840 2.96727 37208 ft 458 kts 212°
2026-04-30 08:11 49.29531 2.91321 37210 ft 458 kts 211°
2026-04-30 08:12 49.24218 2.85949 37208 ft 457 kts 211°
2026-04-30 08:12 49.18937 2.80636 37192 ft 456 kts 211°
2026-04-30 08:13 49.13622 2.75305 37187 ft 456 kts 211°
2026-04-30 08:13 49.08314 2.69993 37185 ft 456 kts 211°
2026-04-30 08:14 49.03005 2.64694 37183 ft 455 kts 210°
2026-04-30 08:14 48.97725 2.59436 37180 ft 451 kts 211°
2026-04-30 08:15 48.92481 2.54227 37184 ft 450 kts 211°
2026-04-30 08:15 48.87231 2.49027 37184 ft 450 kts 211°
2026-04-30 08:16 48.81978 2.43839 37188 ft 450 kts 211°
2026-04-30 08:16 48.76739 2.38675 37185 ft 449 kts 211°
2026-04-30 08:17 48.71530 2.33553 37183 ft 449 kts 211°
2026-04-30 08:17 48.66279 2.28404 37184 ft 449 kts 211°
2026-04-30 08:18 48.61031 2.23271 37180 ft 449 kts 210°
2026-04-30 08:18 48.55485 2.19053 37175 ft 444 kts 194°
2026-04-30 08:19 48.49521 2.16703 37161 ft 443 kts 190°
2026-04-30 08:19 48.43526 2.14780 37155 ft 442 kts 189°
2026-04-30 08:20 48.37499 2.12911 37145 ft 442 kts 190°
2026-04-30 08:20 48.31487 2.11042 37143 ft 441 kts 188°
2026-04-30 08:21 48.25406 2.10720 37151 ft 437 kts 174°
2026-04-30 08:21 48.19374 2.11768 37136 ft 436 kts 171°
2026-04-30 08:22 48.13317 2.12730 37133 ft 440 kts 180°
2026-04-30 08:22 48.07198 2.12050 37129 ft 441 kts 185°
2026-04-30 08:23 48.01109 2.10918 37130 ft 441 kts 186°
2026-04-30 08:23 47.95024 2.09696 37128 ft 441 kts 186°
2026-04-30 08:24 47.88938 2.08501 37129 ft 441 kts 186°
2026-04-30 08:24 47.82891 2.07342 37127 ft 441 kts 186°
2026-04-30 08:25 47.76805 2.06188 37109 ft 441 kts 186°
2026-04-30 08:25 47.70722 2.05037 37107 ft 440 kts 186°
2026-04-30 08:26 47.64663 2.03786 37098 ft 440 kts 191°
2026-04-30 08:26 47.58829 2.01059 37094 ft 440 kts 199°
2026-04-30 08:27 47.53106 1.97802 37087 ft 440 kts 200°
2026-04-30 08:27 47.47427 1.94462 37085 ft 439 kts 201°
2026-04-30 08:28 47.41744 1.91142 37081 ft 439 kts 201°
2026-04-30 08:28 47.36055 1.87855 37087 ft 439 kts 201°
2026-04-30 08:29 47.30373 1.84590 37101 ft 437 kts 200°
2026-04-30 08:29 47.24743 1.81365 37102 ft 437 kts 200°
2026-04-30 08:30 47.19079 1.78130 37098 ft 437 kts 200°
2026-04-30 08:30 47.13407 1.74926 37091 ft 436 kts 200°
2026-04-30 08:31 47.07742 1.71743 37076 ft 435 kts 200°
2026-04-30 08:31 47.02091 1.68571 37075 ft 435 kts 200°
2026-04-30 08:32 46.96444 1.65408 37076 ft 435 kts 200°
2026-04-30 08:32 46.90794 1.62249 37075 ft 435 kts 200°
2026-04-30 08:33 46.85175 1.59115 37075 ft 434 kts 200°
2026-04-30 08:33 46.79521 1.55968 37075 ft 434 kts 200°
2026-04-30 08:34 46.73873 1.52832 37076 ft 434 kts 200°
2026-04-30 08:34 46.68224 1.49701 37076 ft 434 kts 200°
2026-04-30 08:35 46.62574 1.46578 37078 ft 434 kts 200°
2026-04-30 08:35 46.56918 1.43459 37078 ft 434 kts 200°
2026-04-30 08:36 46.51305 1.40370 37078 ft 434 kts 200°
2026-04-30 08:36 46.45650 1.37264 37080 ft 434 kts 200°
2026-04-30 08:37 46.40000 1.34169 37079 ft 434 kts 200°
2026-04-30 08:37 46.34350 1.31080 37081 ft 434 kts 200°
2026-04-30 08:38 46.28696 1.27995 37084 ft 434 kts 200°
2026-04-30 08:38 46.23048 1.24922 37084 ft 434 kts 200°
2026-04-30 08:39 46.17402 1.21855 37085 ft 433 kts 200°
2026-04-30 08:39 46.11755 1.18795 37096 ft 433 kts 200°
2026-04-30 08:40 46.06148 1.15765 37093 ft 432 kts 200°
2026-04-30 08:40 46.00517 1.12726 37100 ft 432 kts 200°
2026-04-30 08:41 45.94888 1.09695 37102 ft 432 kts 199°
2026-04-30 08:41 45.89257 1.06670 37099 ft 431 kts 199°
2026-04-30 08:42 45.83656 1.03569 37099 ft 432 kts 204°
2026-04-30 08:42 45.78596 0.98951 37097 ft 433 kts 216°
2026-04-30 08:43 45.73910 0.93507 37070 ft 435 kts 219°
2026-04-30 08:43 45.70067 0.88851 37069 ft 436 kts 219°
2026-04-30 08:44 45.65440 0.83255 37072 ft 435 kts 219°
2026-04-30 08:44 45.60797 0.77697 37078 ft 435 kts 218°
2026-04-30 08:45 45.56135 0.72155 37073 ft 436 kts 218°
2026-04-30 08:45 45.51483 0.66643 37072 ft 435 kts 218°
2026-04-30 08:46 45.46824 0.61133 37068 ft 435 kts 218°
2026-04-30 08:46 45.42174 0.55644 37073 ft 434 kts 218°
2026-04-30 08:47 45.37512 0.50154 37079 ft 434 kts 218°
2026-04-30 08:47 45.32861 0.44687 37075 ft 433 kts 218°
2026-04-30 08:48 45.28245 0.39274 37075 ft 433 kts 218°
2026-04-30 08:48 45.23598 0.33836 37076 ft 433 kts 218°
2026-04-30 08:49 45.18949 0.28409 37079 ft 433 kts 218°
2026-04-30 08:49 45.14310 0.23006 37079 ft 430 kts 219°
2026-04-30 08:50 45.09685 0.17629 37082 ft 430 kts 219°
2026-04-30 08:50 45.05057 0.12260 37080 ft 430 kts 218°
2026-04-30 08:51 45.00433 0.06909 37084 ft 429 kts 218°
2026-04-30 08:51 44.95815 0.01575 37083 ft 425 kts 218°
2026-04-30 08:52 44.91245 -0.03692 37077 ft 424 kts 218°
2026-04-30 08:52 44.86679 -0.08943 37074 ft 423 kts 218°
2026-04-30 08:53 44.82117 -0.14177 37077 ft 423 kts 218°
2026-04-30 08:53 44.77548 -0.19409 37078 ft 423 kts 218°
2026-04-30 08:54 44.73003 -0.24603 37076 ft 423 kts 218°
2026-04-30 08:54 44.68431 -0.29817 37076 ft 423 kts 218°
2026-04-30 08:55 44.63658 -0.34618 37075 ft 422 kts 210°
2026-04-30 08:55 44.58520 -0.38603 37074 ft 421 kts 207°
2026-04-30 08:56 44.53330 -0.42404 37068 ft 420 kts 207°
2026-04-30 08:56 44.48138 -0.46176 37066 ft 420 kts 207°
2026-04-30 08:57 44.42951 -0.49957 37069 ft 420 kts 207°
2026-04-30 08:57 44.37768 -0.53743 37068 ft 420 kts 207°
2026-04-30 08:58 44.32587 -0.57524 37071 ft 420 kts 207°
2026-04-30 08:58 44.27399 -0.61302 37067 ft 420 kts 207°
2026-04-30 08:59 44.22251 -0.65043 37059 ft 420 kts 207°
2026-04-30 08:59 44.17066 -0.68802 37062 ft 420 kts 207°
2026-04-30 09:00 44.11878 -0.72557 37062 ft 420 kts 207°
2026-04-30 09:00 44.06690 -0.76302 37061 ft 420 kts 207°
2026-04-30 09:01 44.01495 -0.80049 37057 ft 422 kts 208°
2026-04-30 09:01 43.96271 -0.83807 37059 ft 424 kts 208°
2026-04-30 09:02 43.88413 -0.89445 37060 ft 424 kts 208°
2026-04-30 09:02 43.83168 -0.93199 37061 ft 424 kts 208°
2026-04-30 09:03 43.77965 -0.96916 37050 ft 423 kts 208°
2026-04-30 09:03 43.72729 -1.00649 37048 ft 423 kts 208°
2026-04-30 09:04 43.67493 -1.04374 37046 ft 423 kts 208°
2026-04-30 09:04 43.62257 -1.08093 37046 ft 423 kts 209°
2026-04-30 09:05 43.57034 -1.11793 37060 ft 421 kts 209°
2026-04-30 09:05 43.51828 -1.15476 37065 ft 420 kts 209°
2026-04-30 09:06 43.46614 -1.19157 37068 ft 421 kts 208°
2026-04-30 09:06 43.41400 -1.22832 37053 ft 421 kts 209°
2026-04-30 09:07 43.36190 -1.26494 37069 ft 420 kts 209°
2026-04-30 09:07 43.30984 -1.30149 37066 ft 420 kts 209°
2026-04-30 09:08 43.25782 -1.33793 37065 ft 420 kts 209°
2026-04-30 09:08 43.20574 -1.37433 37061 ft 420 kts 210°
2026-04-30 09:09 43.15367 -1.41066 37070 ft 420 kts 210°
2026-04-30 09:09 43.10194 -1.44672 37068 ft 419 kts 210°
2026-04-30 09:10 43.04993 -1.48291 37073 ft 419 kts 210°
2026-04-30 09:10 42.99796 -1.51906 37064 ft 419 kts 211°
2026-04-30 09:11 42.94612 -1.55507 37078 ft 418 kts 211°
2026-04-30 09:11 42.89420 -1.59109 37078 ft 418 kts 211°
2026-04-30 09:12 42.84237 -1.62698 37102 ft 418 kts 211°
2026-04-30 09:12 42.79046 -1.66284 37102 ft 418 kts 211°
2026-04-30 09:13 42.73855 -1.69862 37102 ft 418 kts 211°
2026-04-30 09:13 42.68645 -1.73399 37102 ft 418 kts 210°
2026-04-30 09:14 42.63425 -1.76905 37100 ft 418 kts 210°
2026-04-30 09:14 42.58205 -1.80402 37093 ft 418 kts 211°
2026-04-30 09:15 42.52998 -1.83890 37094 ft 417 kts 211°
2026-04-30 09:15 42.47795 -1.87372 37090 ft 417 kts 211°
2026-04-30 09:16 42.42592 -1.90848 37086 ft 417 kts 211°
2026-04-30 09:16 42.37387 -1.94316 37080 ft 417 kts 211°
2026-04-30 09:17 42.32230 -1.97749 37085 ft 415 kts 211°
2026-04-30 09:17 42.27045 -2.01201 37087 ft 415 kts 211°
2026-04-30 09:18 42.21857 -2.04638 37084 ft 415 kts 211°
2026-04-30 09:18 42.16671 -2.08062 37063 ft 415 kts 211°
2026-04-30 09:19 42.11492 -2.11478 37079 ft 414 kts 211°
2026-04-30 09:19 42.06320 -2.14888 37075 ft 414 kts 211°
2026-04-30 09:20 42.01152 -2.18288 37078 ft 413 kts 211°
2026-04-30 09:20 41.95982 -2.21683 37054 ft 414 kts 211°
2026-04-30 09:21 41.90811 -2.25073 37077 ft 412 kts 211°
2026-04-30 09:21 41.85669 -2.28438 37080 ft 411 kts 211°
2026-04-30 09:22 41.80522 -2.31801 37080 ft 412 kts 211°
2026-04-30 09:22 41.75370 -2.35160 37083 ft 412 kts 211°
2026-04-30 09:23 41.70226 -2.38507 37080 ft 410 kts 211°
2026-04-30 09:23 41.65095 -2.41841 37080 ft 410 kts 211°
2026-04-30 09:24 41.59966 -2.45168 37082 ft 410 kts 211°
2026-04-30 09:24 41.54864 -2.48471 37085 ft 410 kts 211°
2026-04-30 09:25 41.49747 -2.51777 37086 ft 408 kts 212°
2026-04-30 09:25 41.44621 -2.55086 36520 ft 412 kts 212°
2026-04-30 09:26 41.42027 -2.56758 35648 ft 416 kts 212°
2026-04-30 09:26 41.39401 -2.58449 34823 ft 420 kts 212°
2026-04-30 09:26 41.36765 -2.60144 34055 ft 422 kts 212°
2026-04-30 09:26 41.34091 -2.61766 33146 ft 427 kts 206°
2026-04-30 09:27 41.31152 -2.62694 32136 ft 444 kts 190°
2026-04-30 09:27 41.28031 -2.62680 31382 ft 450 kts 183°
2026-04-30 09:27 41.24915 -2.62400 30785 ft 447 kts 182°
2026-04-30 09:27 41.21824 -2.62092 30186 ft 444 kts 181°
2026-04-30 09:28 41.18758 -2.61793 29532 ft 439 kts 181°
2026-04-30 09:28 41.15726 -2.61506 28839 ft 435 kts 181°
2026-04-30 09:28 41.12714 -2.61229 28193 ft 432 kts 181°
2026-04-30 09:28 41.09763 -2.60962 27541 ft 428 kts 181°
2026-04-30 09:29 41.06771 -2.60692 26951 ft 424 kts 181°
2026-04-30 09:29 41.03875 -2.60434 26305 ft 422 kts 181°
2026-04-30 09:29 41.00951 -2.60174 25736 ft 418 kts 181°
2026-04-30 09:29 40.98064 -2.59917 25141 ft 416 kts 181°
2026-04-30 09:30 40.95188 -2.59663 24577 ft 413 kts 180°
2026-04-30 09:30 40.92332 -2.59410 24010 ft 410 kts 180°
2026-04-30 09:30 40.89494 -2.59159 23426 ft 407 kts 180°
2026-04-30 09:30 40.86684 -2.58916 22862 ft 401 kts 181°
2026-04-30 09:31 40.83945 -2.59159 22251 ft 389 kts 198°
2026-04-30 09:31 40.82278 -2.59954 21772 ft 383 kts 211°
2026-04-30 09:31 40.80167 -2.62016 21149 ft 375 kts 226°
2026-04-30 09:31 40.78339 -2.64457 20525 ft 373 kts 228°
2026-04-30 09:32 40.76561 -2.66927 19919 ft 370 kts 228°
2026-04-30 09:32 40.74786 -2.69372 19285 ft 368 kts 227°
2026-04-30 09:32 40.73007 -2.71791 18709 ft 366 kts 227°
2026-04-30 09:32 40.71230 -2.74186 18117 ft 364 kts 227°
2026-04-30 09:33 40.69464 -2.76551 17500 ft 361 kts 227°
2026-04-30 09:33 40.67712 -2.78891 16906 ft 357 kts 227°
2026-04-30 09:33 40.65941 -2.81162 16334 ft 354 kts 221°
2026-04-30 09:33 40.63944 -2.83051 15749 ft 352 kts 214°
2026-04-30 09:34 40.61871 -2.84752 15197 ft 349 kts 213°
2026-04-30 09:34 40.59804 -2.86408 14617 ft 347 kts 213°
2026-04-30 09:34 40.57751 -2.88047 14080 ft 344 kts 213°
2026-04-30 09:34 40.55719 -2.89673 13516 ft 340 kts 213°
2026-04-30 09:35 40.53710 -2.91283 12914 ft 337 kts 213°
2026-04-30 09:35 40.51718 -2.92882 12338 ft 333 kts 213°
2026-04-30 09:35 40.49750 -2.94462 11804 ft 329 kts 213°
2026-04-30 09:35 40.47841 -2.95994 11364 ft 322 kts 213°
2026-04-30 09:36 40.45929 -2.97526 11055 ft 312 kts 213°
2026-04-30 09:36 40.44141 -2.98959 10893 ft 299 kts 212°
2026-04-30 09:36 40.42392 -3.00360 10639 ft 288 kts 213°
2026-04-30 09:36 40.40706 -3.01710 10382 ft 280 kts 213°
2026-04-30 09:37 40.39060 -3.03029 10138 ft 276 kts 212°
2026-04-30 09:37 40.37422 -3.04340 9787 ft 275 kts 212°
2026-04-30 09:37 40.35786 -3.05649 9533 ft 274 kts 212°
2026-04-30 09:37 40.34183 -3.06930 9392 ft 262 kts 212°
2026-04-30 09:38 40.32681 -3.08129 9236 ft 246 kts 212°
2026-04-30 09:38 40.31260 -3.09262 9052 ft 232 kts 212°
2026-04-30 09:38 40.29913 -3.10337 8780 ft 224 kts 212°
2026-04-30 09:38 40.28602 -3.11391 8468 ft 217 kts 213°
2026-04-30 09:39 40.27433 -3.12626 8293 ft 216 kts 227°
2026-04-30 09:39 40.26604 -3.14260 8137 ft 217 kts 246°
2026-04-30 09:39 40.26258 -3.16174 7941 ft 218 kts 266°
2026-04-30 09:39 40.26369 -3.18156 7752 ft 220 kts 277°
2026-04-30 09:40 40.26627 -3.20129 7547 ft 219 kts 279°
2026-04-30 09:40 40.26899 -3.22045 7367 ft 209 kts 279°
2026-04-30 09:40 40.27150 -3.23833 7200 ft 196 kts 278°
2026-04-30 09:40 40.27393 -3.25600 7014 ft 195 kts 278°
2026-04-30 09:41 40.27625 -3.27338 6835 ft 196 kts 278°
2026-04-30 09:41 40.27860 -3.29101 6663 ft 196 kts 278°
2026-04-30 09:41 40.28093 -3.30853 6479 ft 196 kts 278°
2026-04-30 09:41 40.28485 -3.32567 6310 ft 197 kts 295°
2026-04-30 09:42 40.29250 -3.34063 6129 ft 199 kts 306°
2026-04-30 09:42 40.30134 -3.35455 5957 ft 199 kts 308°
2026-04-30 09:42 40.31027 -3.36834 5777 ft 198 kts 313°
2026-04-30 09:42 40.32057 -3.38034 5574 ft 198 kts 321°
2026-04-30 09:43 40.33144 -3.39144 5401 ft 198 kts 321°
2026-04-30 09:43 40.34231 -3.40265 5172 ft 198 kts 321°
2026-04-30 09:43 40.35314 -3.41379 4901 ft 197 kts 321°
2026-04-30 09:43 40.36403 -3.42486 4628 ft 198 kts 321°
2026-04-30 09:44 40.37489 -3.43588 4352 ft 197 kts 320°
2026-04-30 09:44 40.38556 -3.44668 4084 ft 188 kts 320°
2026-04-30 09:44 40.39531 -3.45661 3873 ft 174 kts 319°
2026-04-30 09:44 40.40455 -3.46600 3642 ft 162 kts 320°
2026-04-30 09:45 40.41327 -3.47485 3422 ft 154 kts 320°
2026-04-30 09:45 40.42154 -3.48325 3216 ft 147 kts 319°
2026-04-30 09:45 40.42968 -3.49153 3008 ft 149 kts 320°
2026-04-30 09:45 40.43794 -3.49991 2797 ft 150 kts 321°
2026-04-30 09:46 40.44620 -3.50830 2606 ft 151 kts 320°
2026-04-30 09:46 40.45460 -3.51685 2414 ft 154 kts 320°
2026-04-30 09:46 40.46302 -3.52542 2196 ft 153 kts 321°
2026-04-30 09:46 40.47144 -3.53398 1990 ft 153 kts 321°
2026-04-30 09:47 40.47835 -3.54103 1983 ft 87 kts 322°
2026-04-30 09:47 40.48172 -3.54448 1983 ft 54 kts 324°
2026-04-30 09:47 40.48460 -3.54737 1985 ft 50 kts 323°
2026-04-30 09:47 40.48720 -3.55024 1984 ft 48 kts 310°
2026-04-30 09:48 40.48840 -3.55348 1985 ft 25 kts 292°
2026-04-30 09:48 40.48900 -3.55465 1986 ft 12 kts 314°
2026-04-30 09:48 40.48973 -3.55551 1987 ft 16 kts 323°
2026-04-30 09:48 40.49075 -3.55654 1986 ft 21 kts 322°
2026-04-30 09:49 40.49177 -3.55759 1984 ft 16 kts 321°
2026-04-30 09:49 40.47274 -3.57001 1983 ft 0 kts 262°
2026-04-30 09:50 40.46234 -3.56937 1987 ft 0 kts 306°